• MPC Preparation (Info)

  • MPEC 2013-X33 : 2013 XW3

    The following Minor Planet Electronic Circular may be linked-to from your own Web pages, but must not otherwise be redistributed electronically.

    A form allowing access to any MPEC is at the bottom of this page.


    Read MPEC 2013-X32 Read MPEC 2013-X34


    M.P.E.C. 2013-X33                                Issued 2013 Dec. 7, 00:37 UT
    
         The Minor Planet Electronic Circulars contain information on unusual
             minor planets and routine data on comets.  They are published
       on behalf of Commission 20 of the International Astronomical Union by the
              Minor Planet Center, Smithsonian Astrophysical Observatory,
                              Cambridge, MA 02138, U.S.A.
    
                 Prepared using the Tamkin Foundation Computer Network
    
                                  MPC@CFA.HARVARD.EDU
                URL https://www.minorplanetcenter.net/    ISSN 1523-6714
    
                                       2013 XW3
    
    Observations:
         K13X03W* C2013 12 04.43303 07 16 47.514+25 25 12.53         20.7 wLEX033F51
         K13X03W  C2013 12 04.44699 07 16 45.307+25 25 25.74         20.8 wLEX033F51
         K13X03W  C2013 12 04.46099 07 16 43.095+25 25 39.07         20.7 wLEX033F51
         K13X03W  C2013 12 04.47498 07 16 40.877+25 25 52.48         20.7 wLEX033F51
         K13X03W KC2013 12 05.04259 07 15 15.74 +25 34 18.8                qEX033J95
         K13X03W KC2013 12 05.05982 07 15 12.96 +25 34 35.2          20.5 RqEX033J95
         K13X03W =C2013 12 05.45319 07 14 14.06 +25 40 42.7          20.1  tEX033568
         K13X03W =C2013 12 05.45446 07 14 13.87 +25 40 43.9          20.2  tEX033568
         K13X03W =C2013 12 05.45571 07 14 13.66 +25 40 45.1          20.3  tEX033568
         K13X03W KC2013 12 05.90062 07 13 06.53 +25 47 09.9          20.0 RqEX033104
         K13X03W KC2013 12 05.91137 07 13 04.86 +25 47 20.3          20.6 RqEX033104
         K13X03W KC2013 12 05.91960 07 13 03.53 +25 47 27.1          20.6 RqEX033104
         K13X03W KC2013 12 06.38461 07 11 51.96 +25 54 26.8          20.4 RoEX033291
         K13X03W KC2013 12 06.38646 07 11 51.55 +25 54 26.8          19.7 RoEX033291
         K13X03W KC2013 12 06.38832 07 11 51.28 +25 54 28.5          20.0 RoEX033291
         K13X03W  C2013 12 06.40728 07 11 48.18 +25 54 45.3          20.4 RoEX033926
         K13X03W  C2013 12 06.42100 07 11 45.94 +25 54 57.2          20.7 RoEX033926
         K13X03W  C2013 12 06.43328 07 11 43.95 +25 55 07.9          20.5 RoEX033926
         K13X03W =C2013 12 06.61176 07 11 16.08 +25 57 46.8          20.1  tEX033568
         K13X03W =C2013 12 06.61279 07 11 15.91 +25 57 47.6          20.1  tEX033568
         K13X03W =C2013 12 06.61381 07 11 15.74 +25 57 48.5          20.1  tEX033568
         K13X03W =C2013 12 06.61484 07 11 15.58 +25 57 49.4          20.1  tEX033568
         K13X03W =C2013 12 06.61586 07 11 15.42 +25 57 50.2          20.2  tEX033568
         K13X03W =C2013 12 06.61689 07 11 15.24 +25 57 51.1          20.4  tEX033568
         K13X03W =C2013 12 06.62098 07 11 14.58 +25 57 54.5          20.2  tEX033568
         K13X03W =C2013 12 06.62200 07 11 14.41 +25 57 55.4          20.1  tEX033568
         K13X03W =C2013 12 06.62303 07 11 14.25 +25 57 56.2          20.2  tEX033568
    
    Observer details:
    104 San Marcello Pistoiese.  Observer P. Bacci.  Measurers P. Bacci, L. Tesi,
        G. Fagioli.  0.60-m f/4 reflector + CCD.
    291 LPL/Spacewatch II.  Observers T. H. Bressi, R. A. Mastaler.  1.8-m f/2.7
        reflector + CCD.
    568 Mauna Kea.  Observers D. Woodworth, R. J. Wainscoat.  Measurers P. Veres,
        R. Wainscoat, M. Micheli, R. J. Wainscoat.  3.6-m Canada-France-Hawaii
        Telescope + CCD.
    926 Tenagra II Observatory.  Observers M. Schwartz, P. R. Holvorcem.  0.81-m
        f/7 Ritchey-Chretien + CCD.
    F51 Pan-STARRS 1, Haleakala.  Observers N. Primak, A. Schultz. T. Goggia,
        M. Willman.  Measurer PS1 Science Consortium.  1.8-m Ritchey-Chretien
        + CCD.
    J95 Great Shefford.  Observer P. Birtwhistle.  0.40-m f/6.0 Schmidt-Cassegrain
        + CCD.
    
    Orbital elements:
    2013 XW3                                            PHA, Earth MOID = 0.0427 AU
    Epoch 2013 Nov. 4.0 TT = JDT 2456600.5                  MPC
    M  22.83610              (2000.0)            P               Q
    n   0.43556721     Peri.  282.66707     +0.99049304     +0.11318277
    a   1.7235846      Node    70.87509     -0.07006857     +0.90421603
    e   0.4786563      Incl.    4.74691     -0.11838048     +0.41180460
    P   2.26           H   20.2           G   0.15           U   8
    Residuals in seconds of arc
    131204 F51  0.0   0.1+    131205 104  0.7-  0.0     131206 568  0.0   0.3-
    131204 F51  0.1-  0.0     131205 104  0.6-  0.4+    131206 568  0.0   0.3-
    131204 F51  0.1-  0.0     131205 104  1.1-  0.4-    131206 568  0.1-  0.3-
    131204 F51  0.1-  0.2+    131206 291  1.2+  1.6+    131206 568  0.0   0.2-
    131205 J95  0.9+  0.6-    131206 291  0.3-  0.0     131206 568  0.1+  0.3-
    131205 J95  0.2-  0.1-    131206 291  0.1+  0.0     131206 568  0.1-  0.3-
    131205 568  0.6-  0.4+    131206 926  0.1+  0.0     131206 568  0.1-  0.3-
    131205 568  0.4-  0.4+    131206 926  0.2-  0.0     131206 568  0.2-  0.2-
    131205 568  0.5-  0.4+    131206 926  0.1-  0.0     131206 568  0.1-  0.3-
    
    Ephemeris:
    2013 XW3                 a,e,i = 1.72, 0.48, 5                   q = 0.8986
    Date    TT    R. A. (2000) Decl.     Delta      r     Elong.  Phase     V
    2013 11 07    08 02 17.7 +17 20 55   0.3168  1.1179   105.4    58.7    20.1
    ...
    2013 11 22    07 43 35.7 +21 53 57   0.3431  1.2203   125.7    41.1    19.9
    ...
    2013 11 30    07 27 21.4 +24 13 52   0.3607  1.2769   137.8    31.2    19.9
    ...
    2013 12 06    07 12 50.5 +25 48 48   0.3783  1.3197   147.3    23.8    19.8
    2013 12 07    07 10 17.4 +26 03 22   0.3817  1.3268   148.9    22.6    19.8
    2013 12 08    07 07 42.8 +26 17 30   0.3853  1.3340   150.5    21.3    19.8
    ...
    2013 12 14    06 52 00.3 +27 32 33   0.4102  1.3768   159.9    14.2    19.8
    ...
    2013 12 22    06 31 46.7 +28 44 27   0.4535  1.4335   171.2     6.0    19.7
    ...
    2014 01 06    06 02 27.3 +29 42 18   0.5688  1.5380   163.9    10.2    20.6
    
    A. U. Tomatic                (C) Copyright 2013 MPC           M.P.E.C. 2013-X33
    

    Read MPEC 2013-X32 Read MPEC 2013-X34


    MPEC number:

    Enter an MPEC number in one of the following forms:

    • 1997-B01 (the full form)
    • J97B01 (the packed version of the full form)
    • B01 (the abbreviated form)